﻿測定場所 (Monitoring sites),日付 (Measurement date),時間 (Measurement time),線量率 最大値 (max) μGy/h,線量率 最小値 (min) μGy/h,線量率 平均値 (average) μGy/h,
八王子 (Hachioji),2012-08-05,23:01～24:00,0.0434,0.0370,0.0407,
八王子 (Hachioji),2012-08-05,22:01～23:00,0.0439,0.0363,0.0404,
八王子 (Hachioji),2012-08-05,21:01～22:00,0.0435,0.0367,0.0405,
八王子 (Hachioji),2012-08-05,20:01～21:00,0.0426,0.0365,0.0402,
八王子 (Hachioji),2012-08-05,19:01～20:00,0.0438,0.0371,0.0405,
八王子 (Hachioji),2012-08-05,18:01～19:00,0.0429,0.0365,0.0403,
八王子 (Hachioji),2012-08-05,17:01～18:00,0.0440,0.0363,0.0406,
八王子 (Hachioji),2012-08-05,16:01～17:00,0.0434,0.0368,0.0404,
八王子 (Hachioji),2012-08-05,15:01～16:00,0.0438,0.0366,0.0403,
八王子 (Hachioji),2012-08-05,14:01～15:00,0.0444,0.0373,0.0405,
八王子 (Hachioji),2012-08-05,13:01～14:00,0.0444,0.0374,0.0408,
八王子 (Hachioji),2012-08-05,12:01～13:00,0.0433,0.0366,0.0407,
八王子 (Hachioji),2012-08-05,11:01～12:00,0.0447,0.0373,0.0403,
八王子 (Hachioji),2012-08-05,10:01～11:00,0.0435,0.0361,0.0407,
八王子 (Hachioji),2012-08-05,09:01～10:00,0.0433,0.0370,0.0402,
八王子 (Hachioji),2012-08-05,08:01～09:00,0.0451,0.0384,0.0406,
八王子 (Hachioji),2012-08-05,07:01～08:00,0.0434,0.0378,0.0411,
八王子 (Hachioji),2012-08-05,06:01～07:00,0.0453,0.0372,0.0416,
八王子 (Hachioji),2012-08-05,05:01～06:00,0.0445,0.0366,0.0416,
八王子 (Hachioji),2012-08-05,04:01～05:00,0.0436,0.0368,0.0411,
八王子 (Hachioji),2012-08-05,03:01～04:00,0.0437,0.0379,0.0409,
八王子 (Hachioji),2012-08-05,02:01～03:00,0.0444,0.0379,0.0410,
八王子 (Hachioji),2012-08-05,01:01～02:00,0.0433,0.0372,0.0403,
八王子 (Hachioji),2012-08-05,00:01～01:00,0.0442,0.0375,0.0408,
八王子 (Hachioji),2012-08-04,23:01～24:00,0.0441,0.0368,0.0404,
八王子 (Hachioji),2012-08-04,22:01～23:00,0.0438,0.0374,0.0404,
八王子 (Hachioji),2012-08-04,21:01～22:00,0.0431,0.0369,0.0401,
八王子 (Hachioji),2012-08-04,20:01～21:00,0.0433,0.0374,0.0401,
八王子 (Hachioji),2012-08-04,19:01～20:00,0.0436,0.0373,0.0403,
八王子 (Hachioji),2012-08-04,18:01～19:00,0.0430,0.0369,0.0399,
八王子 (Hachioji),2012-08-04,17:01～18:00,0.0430,0.0366,0.0399,
八王子 (Hachioji),2012-08-04,16:01～17:00,0.0433,0.0370,0.0407,
八王子 (Hachioji),2012-08-04,15:01～16:00,0.0441,0.0369,0.0404,
八王子 (Hachioji),2012-08-04,14:01～15:00,0.0435,0.0369,0.0402,
八王子 (Hachioji),2012-08-04,13:01～14:00,0.0436,0.0368,0.0407,
八王子 (Hachioji),2012-08-04,12:01～13:00,0.0443,0.0372,0.0403,
八王子 (Hachioji),2012-08-04,11:01～12:00,0.0438,0.0370,0.0407,
八王子 (Hachioji),2012-08-04,10:01～11:00,0.0451,0.0360,0.0404,
八王子 (Hachioji),2012-08-04,09:01～10:00,0.0439,0.0374,0.0406,
八王子 (Hachioji),2012-08-04,08:01～09:00,0.0450,0.0381,0.0407,
八王子 (Hachioji),2012-08-04,07:01～08:00,0.0467,0.0369,0.0410,
八王子 (Hachioji),2012-08-04,06:01～07:00,0.0438,0.0367,0.0402,
八王子 (Hachioji),2012-08-04,05:01～06:00,0.0443,0.0374,0.0405,
八王子 (Hachioji),2012-08-04,04:01～05:00,0.0437,0.0375,0.0407,
八王子 (Hachioji),2012-08-04,03:01～04:00,0.0455,0.0380,0.0408,
八王子 (Hachioji),2012-08-04,02:01～03:00,0.0443,0.0382,0.0411,
八王子 (Hachioji),2012-08-04,01:01～02:00,0.0443,0.0370,0.0408,
八王子 (Hachioji),2012-08-04,00:01～01:00,0.0437,0.0367,0.0403,
八王子 (Hachioji),2012-08-03,23:01～24:00,0.0432,0.0375,0.0403,
八王子 (Hachioji),2012-08-03,22:01～23:00,0.0431,0.0369,0.0404,
八王子 (Hachioji),2012-08-03,21:01～22:00,0.0440,0.0364,0.0398,
八王子 (Hachioji),2012-08-03,20:01～21:00,0.0434,0.0364,0.0399,
八王子 (Hachioji),2012-08-03,19:01～20:00,0.0436,0.0368,0.0404,
八王子 (Hachioji),2012-08-03,18:01～19:00,0.0437,0.0368,0.0406,
八王子 (Hachioji),2012-08-03,17:01～18:00,0.0429,0.0364,0.0403,
八王子 (Hachioji),2012-08-03,16:01～17:00,0.0443,0.0364,0.0402,
八王子 (Hachioji),2012-08-03,15:01～16:00,0.0443,0.0366,0.0403,
八王子 (Hachioji),2012-08-03,14:01～15:00,0.0443,0.0370,0.0406,
八王子 (Hachioji),2012-08-03,13:01～14:00,0.0441,0.0379,0.0406,
八王子 (Hachioji),2012-08-03,12:01～13:00,0.0426,0.0373,0.0401,
八王子 (Hachioji),2012-08-03,11:01～12:00,0.0459,0.0380,0.0408,
八王子 (Hachioji),2012-08-03,10:01～11:00,0.0438,0.0368,0.0406,
八王子 (Hachioji),2012-08-03,09:01～10:00,0.0455,0.0384,0.0413,
八王子 (Hachioji),2012-08-03,08:01～09:00,0.0460,0.0386,0.0420,
八王子 (Hachioji),2012-08-03,07:01～08:00,0.0470,0.0404,0.0427,
八王子 (Hachioji),2012-08-03,06:01～07:00,0.0480,0.0413,0.0438,
八王子 (Hachioji),2012-08-03,05:01～06:00,0.0483,0.0401,0.0435,
八王子 (Hachioji),2012-08-03,04:01～05:00,0.0465,0.0400,0.0432,
八王子 (Hachioji),2012-08-03,03:01～04:00,0.0466,0.0386,0.0420,
八王子 (Hachioji),2012-08-03,02:01～03:00,0.0445,0.0377,0.0413,
八王子 (Hachioji),2012-08-03,01:01～02:00,0.0433,0.0372,0.0404,
八王子 (Hachioji),2012-08-03,00:01～01:00,0.0429,0.0378,0.0404,
八王子 (Hachioji),2012-08-02,23:01～24:00,0.0441,0.0379,0.0405,
八王子 (Hachioji),2012-08-02,22:01～23:00,0.0432,0.0372,0.0404,
八王子 (Hachioji),2012-08-02,21:01～22:00,0.0451,0.0367,0.0403,
八王子 (Hachioji),2012-08-02,20:01～21:00,0.0435,0.0368,0.0406,
八王子 (Hachioji),2012-08-02,19:01～20:00,0.0424,0.0369,0.0402,
八王子 (Hachioji),2012-08-02,18:01～19:00,0.0435,0.0369,0.0404,
八王子 (Hachioji),2012-08-02,17:01～18:00,0.0430,0.0378,0.0409,
八王子 (Hachioji),2012-08-02,16:01～17:00,0.0455,0.0365,0.0403,
八王子 (Hachioji),2012-08-02,15:01～16:00,0.0430,0.0372,0.0404,
八王子 (Hachioji),2012-08-02,14:01～15:00,0.0451,0.0371,0.0404,
八王子 (Hachioji),2012-08-02,13:01～14:00,0.0439,0.0369,0.0401,
八王子 (Hachioji),2012-08-02,12:01～13:00,0.0438,0.0372,0.0400,
八王子 (Hachioji),2012-08-02,11:01～12:00,0.0440,0.0357,0.0398,
八王子 (Hachioji),2012-08-02,10:01～11:00,0.0435,0.0372,0.0403,
八王子 (Hachioji),2012-08-02,09:01～10:00,0.0433,0.0370,0.0401,
八王子 (Hachioji),2012-08-02,08:01～09:00,0.0450,0.0374,0.0416,
八王子 (Hachioji),2012-08-02,07:01～08:00,0.0469,0.0392,0.0426,
八王子 (Hachioji),2012-08-02,06:01～07:00,0.0458,0.0394,0.0426,
八王子 (Hachioji),2012-08-02,05:01～06:00,0.0449,0.0396,0.0420,
八王子 (Hachioji),2012-08-02,04:01～05:00,0.0446,0.0385,0.0414,
八王子 (Hachioji),2012-08-02,03:01～04:00,0.0452,0.0375,0.0410,
八王子 (Hachioji),2012-08-02,02:01～03:00,0.0444,0.0369,0.0403,
八王子 (Hachioji),2012-08-02,01:01～02:00,0.0451,0.0379,0.0402,
八王子 (Hachioji),2012-08-02,00:01～01:00,0.0422,0.0372,0.0402,
八王子 (Hachioji),2012-08-01,23:01～24:00,0.0428,0.0368,0.0398,
八王子 (Hachioji),2012-08-01,22:01～23:00,0.0433,0.0369,0.0402,
八王子 (Hachioji),2012-08-01,21:01～22:00,0.0449,0.0368,0.0402,
八王子 (Hachioji),2012-08-01,20:01～21:00,0.0450,0.0370,0.0402,
八王子 (Hachioji),2012-08-01,19:01～20:00,0.0454,0.0371,0.0402,
八王子 (Hachioji),2012-08-01,18:01～19:00,0.0431,0.0365,0.0400,
八王子 (Hachioji),2012-08-01,17:01～18:00,0.0444,0.0375,0.0403,
八王子 (Hachioji),2012-08-01,16:01～17:00,0.0455,0.0373,0.0403,
八王子 (Hachioji),2012-08-01,15:01～16:00,0.0426,0.0374,0.0403,
八王子 (Hachioji),2012-08-01,14:01～15:00,0.0435,0.0375,0.0402,
八王子 (Hachioji),2012-08-01,13:01～14:00,0.0431,0.0366,0.0404,
八王子 (Hachioji),2012-08-01,12:01～13:00,0.0436,0.0377,0.0404,
八王子 (Hachioji),2012-08-01,11:01～12:00,0.0451,0.0380,0.0408,
八王子 (Hachioji),2012-08-01,10:01～11:00,0.0430,0.0372,0.0404,
八王子 (Hachioji),2012-08-01,09:01～10:00,0.0442,0.0366,0.0407,
八王子 (Hachioji),2012-08-01,08:01～09:00,0.0454,0.0384,0.0414,
八王子 (Hachioji),2012-08-01,07:01～08:00,0.0449,0.0393,0.0421,
八王子 (Hachioji),2012-08-01,06:01～07:00,0.0464,0.0381,0.0423,
八王子 (Hachioji),2012-08-01,05:01～06:00,0.0445,0.0386,0.0414,
八王子 (Hachioji),2012-08-01,04:01～05:00,0.0445,0.0376,0.0412,
八王子 (Hachioji),2012-08-01,03:01～04:00,0.0447,0.0390,0.0412,
八王子 (Hachioji),2012-08-01,02:01～03:00,0.0435,0.0381,0.0409,
八王子 (Hachioji),2012-08-01,01:01～02:00,0.0442,0.0366,0.0408,
八王子 (Hachioji),2012-08-01,00:01～01:00,0.0436,0.0366,0.0404,
八王子 (Hachioji),2012-07-31,23:01～24:00,0.0440,0.0369,0.0401,
八王子 (Hachioji),2012-07-31,22:01～23:00,0.0432,0.0370,0.0402,
八王子 (Hachioji),2012-07-31,21:01～22:00,0.0441,0.0359,0.0404,
八王子 (Hachioji),2012-07-31,20:01～21:00,0.0427,0.0366,0.0399,
八王子 (Hachioji),2012-07-31,19:01～20:00,0.0433,0.0369,0.0401,
八王子 (Hachioji),2012-07-31,18:01～19:00,0.0435,0.0366,0.0402,
八王子 (Hachioji),2012-07-31,17:01～18:00,0.0438,0.0371,0.0402,
八王子 (Hachioji),2012-07-31,16:01～17:00,0.0436,0.0369,0.0401,
八王子 (Hachioji),2012-07-31,15:01～16:00,0.0441,0.0366,0.0402,
八王子 (Hachioji),2012-07-31,14:01～15:00,0.0443,0.0371,0.0403,
八王子 (Hachioji),2012-07-31,13:01～14:00,0.0439,0.0370,0.0401,
八王子 (Hachioji),2012-07-31,12:01～13:00,0.0437,0.0367,0.0400,
八王子 (Hachioji),2012-07-31,11:01～12:00,0.0440,0.0367,0.0404,
八王子 (Hachioji),2012-07-31,10:01～11:00,0.0427,0.0376,0.0404,
八王子 (Hachioji),2012-07-31,09:01～10:00,0.0453,0.0376,0.0406,
八王子 (Hachioji),2012-07-31,08:01～09:00,0.0439,0.0365,0.0404,
八王子 (Hachioji),2012-07-31,07:01～08:00,0.0444,0.0376,0.0403,
八王子 (Hachioji),2012-07-31,06:01～07:00,0.0433,0.0375,0.0405,
八王子 (Hachioji),2012-07-31,05:01～06:00,0.0457,0.0376,0.0404,
八王子 (Hachioji),2012-07-31,04:01～05:00,0.0430,0.0368,0.0402,
八王子 (Hachioji),2012-07-31,03:01～04:00,0.0450,0.0371,0.0401,
八王子 (Hachioji),2012-07-31,02:01～03:00,0.0425,0.0364,0.0393,
八王子 (Hachioji),2012-07-31,01:01～02:00,0.0427,0.0368,0.0397,
八王子 (Hachioji),2012-07-31,00:01～01:00,0.0465,0.0366,0.0395,
八王子 (Hachioji),2012-07-30,23:01～24:00,0.0441,0.0369,0.0400,
八王子 (Hachioji),2012-07-30,22:01～23:00,0.0430,0.0370,0.0397,
八王子 (Hachioji),2012-07-30,21:01～22:00,0.0425,0.0365,0.0398,
八王子 (Hachioji),2012-07-30,20:01～21:00,0.0441,0.0372,0.0398,
八王子 (Hachioji),2012-07-30,19:01～20:00,0.0430,0.0364,0.0399,
八王子 (Hachioji),2012-07-30,18:01～19:00,0.0430,0.0362,0.0400,
八王子 (Hachioji),2012-07-30,17:01～18:00,0.0429,0.0365,0.0398,
八王子 (Hachioji),2012-07-30,16:01～17:00,0.0425,0.0372,0.0397,
八王子 (Hachioji),2012-07-30,15:01～16:00,0.0444,0.0368,0.0398,
八王子 (Hachioji),2012-07-30,14:01～15:00,0.0441,0.0368,0.0406,
八王子 (Hachioji),2012-07-30,13:01～14:00,0.0442,0.0363,0.0398,
八王子 (Hachioji),2012-07-30,12:01～13:00,0.0427,0.0365,0.0399,
八王子 (Hachioji),2012-07-30,11:01～12:00,0.0433,0.0363,0.0400,
八王子 (Hachioji),2012-07-30,10:01～11:00,0.0426,0.0373,0.0398,
八王子 (Hachioji),2012-07-30,09:01～10:00,0.0432,0.0367,0.0398,
八王子 (Hachioji),2012-07-30,08:01～09:00,0.0445,0.0366,0.0404,
八王子 (Hachioji),2012-07-30,07:01～08:00,0.0455,0.0371,0.0414,
八王子 (Hachioji),2012-07-30,06:01～07:00,0.0453,0.0369,0.0414,
八王子 (Hachioji),2012-07-30,05:01～06:00,0.0436,0.0380,0.0408,
八王子 (Hachioji),2012-07-30,04:01～05:00,0.0443,0.0370,0.0405,
八王子 (Hachioji),2012-07-30,03:01～04:00,0.0433,0.0368,0.0401,
八王子 (Hachioji),2012-07-30,02:01～03:00,0.0434,0.0374,0.0401,
八王子 (Hachioji),2012-07-30,01:01～02:00,0.0428,0.0374,0.0402,
八王子 (Hachioji),2012-07-30,00:01～01:00,0.0455,0.0363,0.0396,
